TimeMST,TemperatureF,Dew PointF,Humidity,Sea Level PressureIn,VisibilityMPH,Wind Direction,Wind SpeedMPH,Gust SpeedMPH,PrecipitationIn,Events,Conditions,WindDirDegrees,DateUTC
12:15 AM,50.0,32.0,50,29.93,10.0,SSE,9.2,-,N/A,,Overcast,160,2012-12-05 07:15:00
12:35 AM,50.0,32.0,50,29.94,10.0,SW,11.5,-,N/A,,Overcast,230,2012-12-05 07:35:00
12:55 AM,51.8,32.0,47,29.92,10.0,WSW,10.4,23.0,N/A,,Overcast,240,2012-12-05 07:55:00
1:15 AM,50.0,30.2,47,29.91,10.0,SW,18.4,24.2,N/A,,Overcast,220,2012-12-05 08:15:00
1:35 AM,50.0,30.2,47,29.90,10.0,South,17.3,-,N/A,,Mostly Cloudy,190,2012-12-05 08:35:00
1:55 AM,50.0,30.2,47,29.89,10.0,SSE,12.7,-,N/A,,Scattered Clouds,160,2012-12-05 08:55:00
2:15 AM,50.0,30.2,47,29.90,10.0,SE,9.2,-,N/A,,Mostly Cloudy,140,2012-12-05 09:15:00
2:35 AM,51.8,30.2,44,29.91,10.0,East,8.1,-,N/A,,Overcast,90,2012-12-05 09:35:00
2:55 AM,51.8,30.2,44,29.91,10.0,SSE,10.4,17.3,N/A,,Mostly Cloudy,160,2012-12-05 09:55:00
3:15 AM,51.8,30.2,44,29.90,10.0,North,9.2,-,N/A,,Clear,350,2012-12-05 10:15:00
3:35 AM,51.8,30.2,44,29.90,10.0,SW,13.8,20.7,N/A,,Scattered Clouds,220,2012-12-05 10:35:00
3:55 AM,51.8,30.2,44,29.89,10.0,NNE,5.8,16.1,N/A,,Scattered Clouds,30,2012-12-05 10:55:00
4:15 AM,51.8,30.2,44,29.89,10.0,NNW,5.8,-,N/A,,Mostly Cloudy,330,2012-12-05 11:15:00
4:35 AM,51.8,30.2,44,29.88,10.0,WSW,8.1,16.1,N/A,,Overcast,240,2012-12-05 11:35:00
4:55 AM,51.8,30.2,44,29.86,10.0,North,15.0,-,N/A,,Overcast,10,2012-12-05 11:55:00
5:35 AM,51.8,32.0,47,29.84,10.0,NW,13.8,26.5,N/A,,Overcast,310,2012-12-05 12:35:00
5:55 AM,51.8,30.2,44,29.83,10.0,NNW,11.5,20.7,N/A,,Scattered Clouds,340,2012-12-05 12:55:00
7:55 AM,50.0,32.0,50,29.83,10.0,ESE,8.1,-,N/A,,Mostly Cloudy,110,2012-12-05 14:55:00
8:15 AM,51.8,30.2,44,29.82,10.0,East,8.1,21.9,N/A,,Mostly Cloudy,80,2012-12-05 15:15:00
8:35 AM,51.8,30.2,44,29.83,10.0,South,8.1,-,N/A,,Partly Cloudy,180,2012-12-05 15:35:00
8:55 AM,51.8,30.2,44,29.83,10.0,South,5.8,-,N/A,,Clear,180,2012-12-05 15:55:00
9:15 AM,53.6,32.0,44,29.82,10.0,West,3.5,16.1,N/A,,Clear,270,2012-12-05 16:15:00
9:35 AM,55.4,32.0,41,29.82,10.0,WSW,13.8,25.3,N/A,,Clear,250,2012-12-05 16:35:00
9:55 AM,57.2,32.0,38,29.82,10.0,WSW,13.8,25.3,N/A,,Partly Cloudy,240,2012-12-05 16:55:00
10:15 AM,55.4,32.0,41,29.81,10.0,WSW,11.5,20.7,N/A,,Partly Cloudy,250,2012-12-05 17:15:00
10:35 AM,53.6,33.8,47,29.82,10.0,West,9.2,20.7,N/A,,Clear,260,2012-12-05 17:35:00
10:55 AM,53.6,33.8,47,29.82,10.0,SW,10.4,-,N/A,,Scattered Clouds,220,2012-12-05 17:55:00
11:15 AM,53.6,33.8,47,29.81,10.0,WNW,6.9,-,N/A,,Scattered Clouds,300,2012-12-05 18:15:00
11:35 AM,53.6,33.8,47,29.81,10.0,SW,6.9,17.3,N/A,,Partly Cloudy,230,2012-12-05 18:35:00
11:55 AM,55.4,33.8,44,29.79,10.0,West,10.4,24.2,N/A,,Clear,260,2012-12-05 18:55:00
12:35 PM,57.2,33.8,41,29.79,10.0,NNW,9.2,16.1,N/A,,Mostly Cloudy,330,2012-12-05 19:35:00
12:55 PM,57.2,33.8,41,29.79,10.0,West,12.7,21.9,N/A,,Overcast,270,2012-12-05 19:55:00
1:15 PM,55.4,32.0,41,29.80,10.0,West,11.5,26.5,N/A,,Overcast,260,2012-12-05 20:15:00
1:35 PM,57.2,32.0,38,29.79,10.0,WSW,11.5,24.2,N/A,,Overcast,240,2012-12-05 20:35:00
1:55 PM,57.2,30.2,36,29.78,10.0,South,5.8,-,N/A,,Overcast,170,2012-12-05 20:55:00
2:15 PM,53.6,32.0,44,29.77,10.0,West,11.5,20.7,N/A,,Mostly Cloudy,260,2012-12-05 21:15:00
2:35 PM,53.6,32.0,44,29.78,10.0,West,13.8,28.8,N/A,,Clear,280,2012-12-05 21:35:00
2:55 PM,53.6,32.0,44,29.79,10.0,West,5.8,19.6,N/A,,Clear,270,2012-12-05 21:55:00
3:15 PM,53.6,32.0,44,29.80,10.0,NNW,3.5,17.3,N/A,,Scattered Clouds,330,2012-12-05 22:15:00
3:35 PM,53.6,30.2,41,29.80,10.0,West,5.8,-,N/A,,Overcast,270,2012-12-05 22:35:00
3:55 PM,53.6,28.4,38,29.80,10.0,WSW,10.4,18.4,N/A,,Mostly Cloudy,240,2012-12-05 22:55:00
4:15 PM,53.6,28.4,38,29.81,10.0,NW,5.8,-,N/A,,Partly Cloudy,310,2012-12-05 23:15:00
4:35 PM,51.8,28.4,41,29.81,10.0,SW,12.7,19.6,N/A,,Partly Cloudy,230,2012-12-05 23:35:00
4:55 PM,51.8,26.6,38,29.82,10.0,West,8.1,-,N/A,,Clear,270,2012-12-05 23:55:00
5:15 PM,51.8,26.6,38,29.82,10.0,SW,4.6,-,N/A,,Clear,220,2012-12-06 00:15:00
5:35 PM,51.8,26.6,38,29.83,10.0,WNW,8.1,16.1,N/A,,Partly Cloudy,290,2012-12-06 00:35:00
5:55 PM,50.0,28.4,43,29.83,10.0,West,8.1,-,N/A,,Clear,270,2012-12-06 00:55:00
6:15 PM,50.0,26.6,40,29.84,10.0,WNW,4.6,17.3,N/A,,Clear,300,2012-12-06 01:15:00
6:55 PM,48.2,28.4,46,29.85,10.0,West,9.2,-,N/A,,Clear,260,2012-12-06 01:55:00
7:15 PM,48.2,28.4,46,29.85,10.0,WNW,8.1,20.7,N/A,,Clear,300,2012-12-06 02:15:00
7:35 PM,48.2,26.6,43,29.86,10.0,WSW,3.5,-,N/A,,Partly Cloudy,240,2012-12-06 02:35:00
7:55 PM,48.2,26.6,43,29.86,10.0,West,5.8,-,N/A,,Mostly Cloudy,280,2012-12-06 02:55:00
8:15 PM,46.4,24.8,43,29.87,10.0,West,8.1,-,N/A,,Overcast,270,2012-12-06 03:15:00
8:35 PM,46.4,24.8,43,29.88,10.0,North,3.5,-,N/A,,Overcast,350,2012-12-06 03:35:00
8:55 PM,44.6,28.4,53,29.89,10.0,NNE,9.2,-,N/A,,Overcast,20,2012-12-06 03:55:00
9:15 PM,44.6,30.2,57,29.90,10.0,West,4.6,-,N/A,,Overcast,270,2012-12-06 04:15:00
9:35 PM,42.8,32.0,66,29.90,10.0,North,6.9,-,N/A,,Overcast,360,2012-12-06 04:35:00
9:55 PM,44.6,30.2,57,29.91,10.0,NNW,6.9,-,N/A,,Overcast,330,2012-12-06 04:55:00
10:15 PM,42.8,30.2,61,29.92,10.0,North,9.2,-,N/A,,Overcast,360,2012-12-06 05:15:00
10:35 PM,42.8,30.2,61,29.93,10.0,NNW,10.4,-,N/A,,Overcast,340,2012-12-06 05:35:00
10:55 PM,41.0,28.4,61,29.94,10.0,North,9.2,16.1,N/A,,Overcast,360,2012-12-06 05:55:00
11:15 PM,39.2,26.6,61,29.95,10.0,North,9.2,-,N/A,,Overcast,360,2012-12-06 06:15:00
11:35 PM,39.2,26.6,61,29.96,10.0,NNW,9.2,-,N/A,,Overcast,330,2012-12-06 06:35:00
11:55 PM,37.4,24.8,60,29.96,10.0,NW,9.2,-,N/A,,Overcast,320,2012-12-06 06:55:00